Weather History for KHBR - November, 2012

Change the Weather History Date:

Friday, November 16, 2012

  Actual Average Record
Temperature  
Mean Temperature 50 °F -  
Max Temperature 63 °F 58 °F 82 °F (2013)
Min Temperature 37 °F 37 °F 14 °F (2014)
Degree Days  
Heating Degree Days 15    
Moisture  
Dew Point 34 °F    
Average Humidity 60    
Maximum Humidity 93    
Minimum Humidity 32    
Precipitation  
Precipitation 0.00 in - - ()
Sea Level Pressure  
Sea Level Pressure 30.36 in    
Wind  
Wind Speed 4 mph (SSE)    
Max Wind Speed 12 mph    
Max Gust Speed -    
Visibility 10 miles    
Events      
Averages and records for this station are not official NWS values.
T = Trace of Precipitation, MM = Missing Value Source: NWS Daily Summary

Daily Weather History Graph

Daily Weather History Graph

Search for Another Location

Airport or City:

Trip Planner

Search our weather history database for the weather conditions in past years. The results will help you decide how hot, cold, wet, or windy it might be!

Date:

Astronomy

Nov. 16, 2012 Rise Set
Actual Time 7:12 AM CST 5:29 PM CST
Civil Twilight 6:45 AM CST 5:56 PM CST
Nautical Twilight 6:14 AM CST 6:27 PM CST
Astronomical Twilight 5:44 AM CST 6:57 PM CST
Moon 10:06 AM CST (11/16) 8:32 PM CST (11/16)
Length of Visible Light 11h 11m
Length of Day
10h 17m
Waxing Crescent, 12% of the Moon is Illuminated
Nov 16
Waxing Crescent
Nov 20
First Quarter
Nov 28
Full
Dec 6
Last Quarter
Dec 13
New

Hourly Weather History & Observations

Time (CST) Temp. Windchill Dew Point Humidity Pressure Visibility Wind Dir Wind Speed Gust Speed Precip Events Conditions
12:53 AM 43.0 °F - 37.9 °F 82% 30.37 in 10.0 mi Calm Calm - N/A   Overcast
1:53 AM 45.0 °F - 35.1 °F 68% 30.36 in 10.0 mi Calm Calm - N/A   Scattered Clouds
2:53 AM 44.1 °F 42.5 °F 34.0 °F 68% 30.36 in 10.0 mi South 3.5 mph - N/A   Clear
3:53 AM 39.0 °F - 34.0 °F 82% 30.37 in 10.0 mi Calm Calm - N/A   Clear
4:53 AM 37.9 °F - 34.0 °F 86% 30.38 in 10.0 mi Calm Calm - N/A   Mostly Cloudy
5:53 AM 39.9 °F 35.8 °F 36.0 °F 86% 30.39 in 10.0 mi ENE 5.8 mph - N/A   Overcast
6:53 AM 39.9 °F 35.8 °F 37.9 °F 93% 30.40 in 8.0 mi East 5.8 mph - N/A   Overcast
7:53 AM 42.1 °F 38.4 °F 37.0 °F 82% 30.42 in 9.0 mi ENE 5.8 mph - N/A   Overcast
8:53 AM 45.0 °F 41.2 °F 37.9 °F 76% 30.42 in 9.0 mi East 6.9 mph - N/A   Mostly Cloudy
9:53 AM 51.1 °F - 36.0 °F 56% 30.43 in 10.0 mi East 5.8 mph - N/A   Clear
10:53 AM 55.0 °F - 34.0 °F 45% 30.42 in 10.0 mi ESE 5.8 mph - N/A   Clear
11:53 AM 59.0 °F - 32.0 °F 36% 30.40 in 10.0 mi South 5.8 mph - N/A   Clear
12:53 PM 60.1 °F - 30.9 °F 33% 30.37 in 10.0 mi South 4.6 mph - N/A   Clear
1:53 PM 62.1 °F - 32.0 °F 32% 30.34 in 10.0 mi South 3.5 mph - N/A   Clear
2:53 PM 63.0 °F - 34.0 °F 34% 30.32 in 10.0 mi South 10.4 mph - N/A   Clear
3:53 PM 63.0 °F - 35.1 °F 35% 30.32 in 10.0 mi South 9.2 mph - N/A   Clear
4:53 PM 60.1 °F - 35.1 °F 39% 30.32 in 10.0 mi South 10.4 mph - N/A   Clear
5:53 PM 53.1 °F - 34.0 °F 48% 30.32 in 10.0 mi SSE 9.2 mph - N/A   Clear
6:53 PM 50.0 °F - 33.1 °F 52% 30.34 in 10.0 mi SSE 10.4 mph - N/A   Clear
7:53 PM 46.0 °F 41.4 °F 32.0 °F 58% 30.34 in 10.0 mi SE 9.2 mph - N/A   Clear
8:53 PM 45.0 °F 40.1 °F 32.0 °F 60% 30.34 in 10.0 mi SE 9.2 mph - N/A   Clear
9:53 PM 48.0 °F - 32.0 °F 54% 30.34 in 10.0 mi SSE 11.5 mph - N/A   Clear
10:53 PM 44.1 °F 40.1 °F 32.0 °F 63% 30.33 in 10.0 mi SSE 6.9 mph - N/A   Clear
11:53 PM 42.1 °F 36.6 °F 32.0 °F 67% 30.33 in 10.0 mi South 9.2 mph - N/A   Clear